Temp
62 62 61 61 61 61 61 61 62 62 62 62 62 62 62 62 61 66 63 72 77 73 70 82 83 82 85 82 87 88 71 68 72 76 81 91 89 98 99 93 95 98 97 100 91
62 61 61 61 61 61 60 60 61 61 61 61 61 61 62 61 62 64 74 75 75 72 77 77 78 80 77 79 82 79 71 71 81 84 84 89 90 93 91 89 90 94 100 102 100
61 61 61 61 61 60 60 60 60 61 61 61 61 61 61 63 61 73 79 76 74 74 80 82 84 82 75 80 80 79 71 79 82 86 89 88 88 92 88 84 90 89 94 99 99
61 61 61 60 60 60 60 60 61 61 61 61 61 61 61 64 57 80 74 72 72 82 79 80 81 77 73 73 81 74 80 80 83 87 87 84 87 84 87 88 95 96 98 99 96
60 60 60 60 59 59 60 60 60 60 60 60 60 61 61 60 63 83 74 72 77 78 76 76 76 77 72 76 79 76 79 82 85 85 85 86 82 82 83 90 94 95 95 95 94
59 59 59 59 59 59 59 59 58 59 59 59 60 60 56 50 82 87 85 76 79 77 77 80 80 83 78 77 77 81 81 81 83 83 84 80 81 82 84 90 90 90 90 92 94
59 59 59 59 59 58 58 58 57 58 59 60 61 61 56 59 84 91 86 80 83 80 78 84 87 82 81 76 83 81 75 79 80 81 80 83 75 77 86 88 86 87 88 89 91
59 58 58 59 59 59 59 58 57 58 59 60 61 60 51 77 82 78 87 84 86 86 85 89 89 83 79 82 79 74 74 66 77 79 81 80 67 80 87 85 83 86 88 87 89
59 58 58 59 59 59 58 57 58 59 60 61 59 57 56 78 72 81 84 81 83 86 86 88 85 77 77 70 66 70 61 65 69 80 79 77 70 80 86 85 83 84 86 87 87
59 58 58 58 58 57 57 56 60 60 61 64 64 52 61 68 80 81 84 85 79 79 77 76 74 68 69 66 55 61 62 66 67 76 80 75 73 79 84 84 83 84 85 85 86
58 58 57 57 57 57 57 64 63 51 55 59 61 59 74 82 87 79 83 80 79 74 64 70 62 59 64 68 70 70 68 66 71 77 76 73 73 77 82 82 82 83 83 84 85
57 57 57 57 57 56 58 57 68 73 60 64 66 70 72 77 73 77 83 71 69 61 67 65 58 67 71 72 70 69 66 68 74 79 75 73 71 77 80 81 83 83 83 83 84
57 56 57 57 56 59 64 67 79 78 60 64 71 70 70 75 70 74 77 72 66 62 63 60 66 71 70 69 67 67 65 67 69 75 77 72 67 71 79 83 85 85 85 86 84
56 56 56 56 57 68 64 78 82 79 51 59 68 71 73 75 67 81 80 73 68 62 65 65 72 70 67 67 69 62 73 72 70 67 59 72 55 69 75 77 80 82 82 84 85
55 55 55 55 57 57 69 75 79 71 34 67 73 87 79 70 71 72 83 74 63 65 66 62 65 67 65 67 72 67 75 71 70 66 64 65 60 67 76 73 76 80 82 84 86
55 55 55 59 64 66 72 75 70 48 36 61 73 70 69 72 71 74 73 76 74 67 68 67 75 73 71 74 75 76 71 70 69 65 53 61 61 63 68 74 77 81 83 85 87
55 55 55 62 57 76 76 67 45 38 62 59 63 70 62 64 67 68 63 62 59 53 56 64 66 73 75 69 73 71 63 53 50 51 50 65 61 65 71 77 80 81 82 85 86
54 53 58 68 72 71 68 53 36 51 55 64 64 66 54 53 47 51 56 56 64 62 57 54 52 67 74 69 65 66 63 54 43 46 53 65 57 65 77 80 83 84 85 85 83
52 65 66 73 79 75 60 41 44 52 59 58 61 57 58 56 51 44 45 54 62 65 55 54 55 71 72 74 72 65 60 69 57 59 51 59 66 69 77 77 79 80 81 80 82
55 59 66 78 77 68 50 42 50 59 61 60 51 57 52 56 45 43 45 51 58 66 68 61 51 66 70 74 74 69 73 57 60 45 43 54 58 56 66 71 76 76 77 79 81
59 56 71 77 72 53 42 48 54 60 57 48 48 54 56 52 46 43 45 55 53 52 68 64 56 52 61 63 62 64 61 63 62 59 46 43 48 58 62 65 61 77 78 78 79
54 47 71 72 49 50 46 45 44 49 60 53 54 57 55 52 42 45 46 51 59 57 52 64 57 43 52 67 73 70 64 62 50 50 59 52 48 56 61 67 64 63 78 79 79
46 52 68 62 38 40 43 50 55 52 48 51 50 56 54 50 42 44 51 58 59 56 56 60 54 42 44 57 66 65 68 67 63 60 55 47 41 59 68 64 59 57 66 76 77
45 44 52 57 48 43 41 47 46 51 51 55 52 55 53 48 46 44 51 52 55 56 57 54 53 47 41 52 61 59 64 67 64 52 52 54 54 61 65 66 67 62 68 61 61
45 44 46 39 44 47 48 48 43 43 50 50 46 44 41 41 41 43 53 52 52 53 52 53 49 52 45 52 54 62 64 61 55 57 50 53 54 61 62 61 65 67 66 64 60
41 40 46 41 49 47 47 41 40 46 45 43 41 42 43 42 47 40 47 50 47 53 46 56 50 55 49 51 48 59 65 60 54 55 55 57 49 61 61 58 57 66 68 69 70
52 50 41 40 45 45 40 41 44 48 48 49 44 43 43 44 47 49 52 48 52 51 50 56 54 52 41 48 50 51 61 61 61 63 60 57 59 66 59 57 58 70 72 69 67
MSLP
1019.30 1018.98 1018.66 1018.42 1018.08 1017.72 1017.41 1017.11 1016.71 1016.26 1015.85 1015.51 1015.20 1014.92 1014.60 1014.21 1013.59 1012.46 1010.59 1008.94 1008.59 1008.89 1009.10 1008.58 1008.04 1007.66 1007.20 1006.18 1005.30 1004.94 1003.98 1002.18 1001.10 1000.00 998.93 998.00 997.06 996.41 996.85 997.89 998.31 997.91 998.38 999.25 1000.99
1019.18 1018.84 1018.53 1018.18 1017.82 1017.53 1017.25 1016.91 1016.58 1016.22 1015.81 1015.45 1015.04 1014.70 1014.37 1014.06 1012.98 1010.17 1007.20 1007.45 1007.70 1008.41 1008.61 1007.82 1006.73 1006.85 1006.17 1005.36 1004.74 1003.88 1002.85 1001.72 1001.11 1000.04 998.88 998.07 997.48 996.90 997.10 997.85 998.32 997.99 998.18 998.87 999.98
1018.95 1018.58 1018.19 1017.89 1017.57 1017.23 1016.88 1016.55 1016.23 1015.84 1015.52 1015.21 1014.94 1014.65 1014.34 1013.97 1011.59 1006.33 1003.84 1005.30 1006.74 1007.56 1007.86 1007.20 1006.05 1005.62 1005.30 1004.55 1003.72 1003.04 1001.60 1001.56 1000.83 1000.12 999.05 998.28 997.91 997.66 997.54 998.12 998.22 998.34 998.69 998.76 999.27
1018.91 1018.46 1018.10 1017.72 1017.37 1017.01 1016.62 1016.25 1015.84 1015.45 1015.05 1014.79 1014.65 1014.43 1014.22 1013.71 1009.10 1005.08 1005.23 1005.45 1006.47 1006.82 1007.27 1006.39 1005.22 1004.35 1004.17 1003.38 1002.94 1002.28 1001.70 1001.67 1000.96 999.98 999.40 999.02 999.11 998.86 998.74 998.73 998.70 998.41 998.45 998.44 998.84
1018.91 1018.50 1018.11 1017.74 1017.32 1016.85 1016.46 1016.11 1015.67 1015.30 1015.03 1014.74 1014.40 1014.17 1013.85 1011.47 1006.79 1005.29 1005.50 1005.97 1006.15 1006.40 1005.99 1005.28 1004.29 1003.57 1002.96 1002.77 1002.29 1001.31 1001.12 1000.98 1000.68 1000.15 999.71 999.87 999.72 999.83 999.69 999.64 999.38 999.09 998.81 998.70 999.18
1018.87 1018.40 1017.97 1017.52 1017.10 1016.64 1016.10 1015.57 1015.17 1014.92 1014.65 1014.34 1014.23 1014.12 1013.28 1009.42 1004.60 1003.89 1004.49 1005.52 1005.11 1005.34 1004.93 1004.46 1003.26 1002.81 1002.37 1002.03 1001.44 1000.94 1000.67 1000.39 1000.36 999.99 999.93 999.95 999.99 1000.10 999.96 1000.02 999.64 999.56 999.33 999.21 999.13
1018.66 1018.17 1017.70 1017.25 1016.71 1016.20 1015.72 1015.15 1014.73 1014.31 1014.04 1013.88 1013.57 1013.44 1011.78 1006.31 1003.68 1002.60 1003.58 1004.42 1004.30 1004.48 1003.71 1003.37 1002.63 1002.17 1001.97 1001.29 1001.06 1000.68 1000.19 1000.02 999.65 999.88 999.56 999.85 999.55 999.16 999.70 999.63 999.49 999.67 999.62 999.66 999.61
1018.41 1017.98 1017.49 1017.01 1016.42 1015.93 1015.42 1014.75 1014.12 1013.65 1013.23 1012.99 1012.96 1012.51 1009.12 1004.70 1003.88 1003.46 1002.66 1003.09 1003.36 1003.67 1003.11 1002.32 1002.10 1001.79 1001.72 1001.50 1001.06 1000.53 1000.28 999.42 999.21 999.32 999.30 999.60 998.33 998.81 998.86 998.84 998.89 999.12 999.25 999.59 999.79
1018.06 1017.64 1017.23 1016.69 1016.05 1015.40 1014.86 1014.21 1013.33 1012.91 1012.56 1012.25 1012.14 1011.67 1006.80 1002.84 1003.02 1002.07 1002.26 1001.94 1002.44 1002.46 1002.64 1002.36 1002.16 1002.13 1002.15 1001.52 1000.87 1000.13 999.43 999.17 998.98 998.32 998.26 998.42 998.23 998.38 998.20 997.89 997.98 998.43 998.86 999.05 999.54
1017.58 1017.06 1016.52 1015.96 1015.41 1014.73 1013.99 1012.85 1011.35 1012.12 1011.84 1011.50 1010.46 1010.42 1005.43 1001.81 1000.77 1001.19 1001.45 1001.25 1001.52 1002.06 1002.28 1002.55 1002.45 1002.02 1001.62 1000.82 999.48 999.23 999.20 998.57 997.58 996.91 996.22 997.14 997.42 997.83 997.50 997.41 997.31 997.69 998.21 998.64 998.93
1017.29 1016.79 1016.19 1015.59 1014.92 1014.38 1013.73 1011.56 1010.11 1010.52 1010.15 1007.70 1006.25 1004.66 1001.38 999.86 999.54 1000.21 1000.37 1000.82 1001.06 1001.41 1001.40 1001.82 1001.76 1000.13 1000.37 1000.30 999.80 998.85 998.01 997.46 997.09 996.30 996.01 996.79 997.08 996.92 996.87 997.07 996.89 996.97 997.60 998.18 998.48
1017.07 1016.49 1015.83 1015.12 1014.32 1013.55 1013.68 1011.48 1007.86 1006.82 1004.73 1004.59 1003.79 1002.37 1001.83 1000.53 999.20 999.29 1000.20 1000.18 1000.30 1000.39 1001.08 1000.99 999.82 1000.07 999.99 999.61 999.22 998.56 997.54 996.24 995.79 995.54 996.02 996.29 996.74 996.66 996.38 996.12 996.13 996.32 996.94 997.58 998.15
1016.83 1016.25 1015.60 1014.72 1013.37 1011.96 1010.65 1008.86 1007.08 1006.07 1004.58 1001.33 1000.77 998.99 999.43 999.88 998.51 998.14 999.38 999.29 999.26 999.93 999.58 999.09 998.64 999.42 998.85 998.56 998.23 997.84 997.19 996.29 995.62 995.52 995.98 996.40 996.65 996.40 995.81 995.54 995.55 996.02 996.52 996.86 997.39
1016.40 1015.81 1015.25 1014.73 1012.78 1010.27 1008.98 1007.13 1006.19 1005.47 1003.53 998.09 995.72 994.52 997.21 998.00 997.12 997.47 997.79 998.82 998.75 998.51 998.79 998.45 997.93 997.54 997.89 997.24 997.29 996.73 996.79 996.48 996.16 996.30 996.07 996.46 995.95 994.93 994.67 994.71 995.02 995.59 996.27 996.55 996.75
1015.92 1015.36 1014.85 1014.62 1013.24 1011.05 1008.24 1007.50 1006.76 1006.35 1002.48 995.93 992.90 991.75 994.35 995.66 995.80 996.13 996.58 997.89 997.70 997.54 998.25 996.81 996.92 996.41 996.24 996.43 996.33 996.07 996.29 996.77 996.78 996.71 996.77 996.35 995.97 994.16 993.58 993.90 994.41 995.10 995.80 996.04 996.23
1015.28 1014.44 1014.21 1012.67 1011.01 1009.33 1008.23 1007.50 1007.15 1005.08 999.93 995.49 993.13 993.10 993.89 994.11 994.66 995.10 996.07 997.13 997.86 997.39 997.01 996.63 996.18 995.75 995.13 995.53 995.56 996.10 996.37 996.55 997.20 997.31 996.97 996.80 996.20 994.61 993.71 993.31 993.54 994.21 995.07 995.62 995.88
1014.49 1013.31 1012.91 1011.86 1009.54 1007.35 1007.03 1006.42 1005.85 1002.67 998.81 995.50 994.02 993.46 994.43 994.14 993.98 995.35 996.34 996.72 996.42 996.74 995.86 995.86 995.27 995.00 994.73 994.80 995.26 995.88 996.34 996.41 996.95 996.76 996.34 996.51 996.04 994.63 994.19 994.31 993.51 993.65 994.51 995.29 995.94
1013.96 1012.24 1010.06 1008.89 1007.82 1007.62 1007.19 1006.54 1003.64 1000.68 998.83 997.51 995.14 994.70 995.02 997.37 998.36 998.51 997.55 996.31 996.57 996.21 996.04 995.13 994.72 993.95 993.89 994.18 994.49 995.14 995.90 995.83 995.81 996.30 996.34 996.15 995.07 994.31 994.23 994.28 994.44 994.35 994.27 995.21 996.29
1013.22 1010.16 1007.86 1005.67 1004.76 1005.45 1005.98 1004.83 1002.40 1000.97 999.62 998.16 996.70 995.43 995.12 996.47 997.93 1000.03 999.34 997.16 996.38 995.93 995.29 994.78 994.03 994.05 994.10 994.00 994.33 994.81 995.08 995.89 995.93 996.43 997.63 995.96 995.79 995.57 995.17 994.76 995.17 995.31 995.23 995.87 996.81
1012.94 1009.78 1006.16 1003.69 1004.71 1005.50 1005.53 1003.96 1002.67 1001.53 1000.12 998.91 997.36 996.52 996.18 996.84 998.98 999.99 999.17 998.27 996.32 995.98 995.57 995.13 995.01 994.37 994.52 994.35 994.11 994.11 995.10 995.80 995.96 996.62 997.28 996.91 996.60 997.64 996.67 996.07 996.14 996.19 996.36 996.58 997.35
1011.61 1008.41 1004.91 1004.67 1005.28 1005.95 1005.41 1003.72 1002.47 1001.35 1001.68 1001.21 999.18 997.12 996.69 997.80 999.56 999.97 999.00 998.26 998.66 997.44 995.47 995.63 995.97 996.86 996.06 994.29 994.12 994.38 994.58 995.16 996.01 996.42 997.23 998.33 999.14 999.43 998.76 998.40 998.98 996.83 996.92 997.34 998.01
1012.38 1008.97 1004.97 1005.19 1005.58 1005.63 1005.09 1004.90 1004.83 1002.98 1001.19 1000.67 999.68 997.76 997.05 997.74 999.20 1000.18 998.38 998.78 997.77 998.10 996.32 995.63 996.79 997.78 996.83 995.19 994.40 994.27 994.29 995.60 996.45 996.68 997.21 998.68 1000.65 1000.35 1000.10 1000.32 999.69 998.59 997.44 998.02 999.01
1012.86 1009.14 1006.61 1006.50 1006.45 1006.34 1006.42 1004.80 1003.07 1002.24 1001.79 1000.71 999.72 998.79 998.81 998.76 999.54 1000.00 999.32 998.45 998.67 998.57 997.72 997.37 997.04 998.25 998.20 996.55 994.82 993.94 994.10 994.85 996.18 996.84 997.25 998.92 1001.75 1001.91 1001.08 1000.89 1000.62 1001.69 1001.28 998.47 1000.36
1013.66 1010.14 1008.13 1006.82 1007.83 1007.27 1006.64 1004.77 1003.51 1003.22 1002.18 1001.25 1000.60 999.61 998.90 999.40 1000.29 999.92 999.03 999.15 999.00 998.84 998.98 999.59 998.13 997.90 997.71 996.06 995.36 994.17 993.98 994.61 995.29 996.82 998.20 999.18 1000.39 1000.83 1000.82 1001.34 1001.86 1002.48 1000.98 1002.38 1002.40
1013.93 1012.19 1011.63 1009.43 1007.72 1007.24 1006.76 1005.59 1004.93 1003.92 1003.08 1002.72 1001.63 1001.75 1001.36 1000.36 1000.02 1000.23 999.04 999.31 999.55 998.82 999.33 999.27 998.12 997.97 998.91 997.61 996.25 994.66 994.24 995.31 996.28 997.43 998.75 999.45 999.91 1000.90 1001.56 1001.83 1002.14 1002.17 1002.73 1003.47 1004.64
1014.54 1013.94 1012.64 1011.75 1009.66 1008.01 1006.99 1006.72 1006.00 1004.63 1004.39 1003.36 1003.01 1002.37 1001.99 1001.03 1000.58 1000.41 999.96 999.69 999.34 999.08 999.25 998.13 997.56 997.48 998.38 998.32 997.57 995.26 994.31 995.69 996.63 997.88 999.41 999.23 1000.04 1001.03 1001.32 1001.52 1001.82 1002.28 1002.62 1002.97 1003.85
1015.05 1014.60 1013.98 1012.35 1010.20 1008.65 1008.40 1007.73 1006.44 1005.42 1004.30 1003.71 1003.60 1002.79 1002.27 1002.08 1001.83 1001.41 1000.62 1000.35 999.94 999.11 998.04 996.98 996.98 997.31 998.62 998.55 997.35 995.83 994.81 995.36 996.12 996.88 997.54 997.60 998.92 1000.11 1001.94 1002.58 1003.16 1001.62 1001.98 1003.14 1004.91
Wind_Speed
17 17 15 16 15 15 16 16 16 16 16 16 15 14 18 20 21 22 24 18 13 11 6 10 13 17 17 19 20 19 16 17 25 24 19 19 21 14 7 8 16 17 17 5 19
17 16 16 16 16 15 15 15 16 17 17 17 16 15 16 16 22 28 26 23 20 15 13 18 17 18 16 17 18 20 17 26 22 21 22 20 21 23 6 8 18 16 11 11 7
16 15 15 15 16 15 14 13 14 15 15 15 15 15 14 17 19 9 2 31 20 19 20 19 19 19 21 18 21 23 23 20 22 25 23 16 18 13 9 13 14 11 15 16 15
15 16 16 16 17 16 16 16 17 17 15 14 15 15 13 13 9 6 10 16 20 18 18 21 22 21 22 23 23 25 25 22 24 24 13 14 13 15 14 12 16 13 14 13 4
15 16 17 17 18 18 17 18 19 18 16 16 15 14 10 12 21 19 10 15 16 18 22 22 23 22 22 21 22 25 22 23 21 20 22 11 17 16 19 17 16 16 18 16 9
14 15 16 17 17 18 18 17 17 17 17 17 18 13 9 21 15 22 11 14 15 21 23 23 19 19 20 23 24 22 23 21 23 21 19 20 18 18 19 18 17 16 17 18 16
14 14 15 17 19 18 18 19 18 17 19 19 18 11 16 31 13 11 17 15 16 21 21 24 22 20 19 20 20 22 18 22 20 21 23 16 23 25 20 19 20 20 16 18 18
15 15 16 17 18 19 19 19 20 22 21 19 16 12 14 18 18 23 16 17 20 21 23 18 18 18 16 15 19 20 21 21 19 20 22 20 22 20 21 21 22 21 17 18 17
17 16 17 19 20 21 22 23 25 25 18 12 8 12 14 9 19 21 22 20 19 17 17 14 12 17 15 19 16 17 18 23 23 24 23 25 22 18 18 15 16 17 18 17 17
18 18 19 19 21 22 22 27 23 14 7 7 12 7 13 16 14 23 24 19 21 20 18 18 12 17 18 18 19 20 21 21 21 22 20 20 19 15 14 13 13 12 14 15 16
18 19 19 21 22 21 19 12 7 7 9 14 16 14 16 15 14 18 24 23 20 20 22 22 19 21 25 25 21 23 22 22 19 21 20 17 14 17 18 17 18 14 12 13 15
20 19 20 23 24 23 16 8 16 20 23 27 29 30 31 27 14 16 21 25 20 24 24 22 24 24 25 26 26 24 25 23 18 22 11 13 14 16 17 17 15 11 11 13 14
20 20 21 24 27 20 11 17 20 21 20 28 29 30 32 30 28 20 25 26 26 27 28 26 19 26 26 25 25 23 24 19 14 7 9 9 13 18 17 16 11 9 7 10 12
20 20 20 19 21 12 18 20 12 15 14 22 25 38 30 29 29 29 27 27 24 29 27 25 26 24 26 26 25 23 22 19 12 12 13 18 15 20 21 18 13 11 8 11 15
23 22 20 11 15 13 15 18 17 8 10 13 8 15 20 34 29 29 26 28 29 23 24 25 26 25 23 27 26 19 19 18 16 13 12 16 10 15 10 14 15 12 12 11 13
27 25 21 16 13 19 20 15 10 10 17 12 5 8 13 20 33 22 33 28 25 29 23 27 25 26 25 22 23 16 17 19 16 14 15 18 16 15 4 16 16 18 15 13 10
30 30 25 16 15 15 10 10 10 13 10 16 19 13 15 13 17 29 28 30 26 28 25 24 28 26 24 19 20 20 17 9 12 12 13 16 18 13 12 5 7 16 16 14 10
32 36 18 15 16 18 10 11 22 12 19 20 29 26 7 2 6 19 16 22 30 26 17 18 23 28 22 20 21 23 17 12 17 15 15 20 19 11 14 12 5 4 12 14 12
35 13 15 15 15 9 9 15 20 23 26 28 27 26 25 5 8 8 17 30 30 29 24 21 24 22 24 18 22 20 22 20 17 8 5 7 5 7 2 12 8 10 9 13 11
13 16 18 9 8 7 8 23 27 30 29 29 29 26 23 22 11 14 12 7 17 27 26 18 14 17 22 18 22 23 20 19 14 16 11 12 14 7 7 14 13 14 12 13 15
10 10 14 5 3 3 11 20 25 21 16 11 26 28 24 9 1 4 8 3 7 23 27 21 5 9 17 21 20 16 16 13 9 12 6 6 5 6 3 10 15 17 14 13 16
9 10 5 7 8 5 9 17 9 25 20 16 18 23 20 7 4 9 10 11 9 6 5 20 5 6 14 22 24 22 20 18 7 14 12 6 3 10 12 4 11 15 15 16 18
10 14 5 9 6 6 11 23 19 15 10 17 7 10 10 6 2 18 12 6 7 1 7 5 7 11 10 8 17 24 22 20 18 5 8 5 6 14 5 10 10 14 15 8 15
6 8 8 7 1 8 16 20 25 14 13 15 14 18 13 10 8 6 12 4 1 6 12 8 8 9 6 11 16 22 22 16 16 8 9 6 9 8 5 1 9 17 14 16 17
4 5 10 11 17 20 20 19 21 15 9 9 8 14 15 7 6 19 14 7 4 5 5 6 14 12 12 11 8 18 24 13 8 7 5 7 8 6 1 7 9 10 15 16 10
5 6 5 14 19 18 17 11 18 21 18 12 10 17 16 8 4 7 3 2 3 9 8 16 12 21 21 18 17 26 13 14 5 11 7 10 12 18 8 5 9 10 19 18 16
5 6 5 11 16 15 14 20 21 20 13 11 11 12 9 10 10 11 13 7 8 12 5 16 13 16 4 3 10 5 13 18 22 26 22 10 17 17 14 9 12 9 13 14 15
Wind_Direction
340 335 337 331 327 327 328 325 322 316 312 310 311 313 314 315 306 280 256 239 243 215 160 256 208 216 230 248 233 226 242 244 246 248 248 262 274 259 136 219 245 242 229 210 111
340 336 335 332 330 328 325 324 322 319 315 312 311 311 313 317 300 279 254 243 233 167 226 225 214 212 218 222 233 226 228 239 249 255 260 265 262 267 205 216 244 250 254 218 136
337 331 329 327 324 319 316 310 309 307 308 310 311 310 311 313 292 272 184 218 194 177 229 225 234 209 222 222 220 225 239 242 242 260 271 279 298 305 267 238 247 234 249 249 226
332 329 326 323 320 317 313 308 306 306 301 301 305 307 310 297 267 83 120 134 165 189 217 225 228 217 224 226 227 232 230 243 262 274 269 279 286 291 290 262 259 273 258 241 179
332 333 329 327 322 317 312 310 310 309 304 300 299 295 291 239 243 245 156 159 170 198 211 212 220 221 220 232 231 233 238 237 246 260 271 251 257 257 260 265 271 276 277 273 189
323 324 324 324 321 317 311 305 302 303 304 299 298 287 254 255 261 250 196 173 188 194 206 217 219 220 233 230 237 241 236 242 243 250 241 258 251 247 247 258 259 255 259 268 280
317 319 320 320 320 315 311 306 303 299 297 295 286 257 251 241 266 165 175 194 194 197 202 221 225 221 224 242 239 262 255 244 244 243 256 239 249 243 247 250 238 242 242 259 273
311 312 313 315 313 311 307 302 297 295 291 285 277 233 249 256 239 256 245 199 210 199 224 220 231 248 249 248 249 243 244 251 227 237 237 235 248 246 236 234 238 242 232 231 251
310 305 308 314 314 311 307 301 291 292 286 272 209 223 262 200 219 226 231 201 208 211 219 248 242 237 231 242 241 223 236 233 248 241 219 217 241 245 251 255 230 222 233 228 224
319 311 305 304 308 306 305 292 276 282 255 222 259 203 245 247 211 213 208 218 202 207 213 219 227 229 225 219 223 215 225 241 237 233 226 217 220 240 260 250 233 231 230 229 223
319 316 311 308 306 305 312 315 191 184 214 210 201 227 261 220 208 195 198 211 205 201 209 205 217 216 216 226 226 244 230 220 238 263 188 208 249 234 226 223 243 218 210 233 221
315 311 308 307 306 300 291 253 276 316 294 224 246 240 250 270 252 195 193 199 198 205 204 208 223 221 220 223 229 235 252 248 217 216 219 206 230 250 240 243 235 231 207 215 213
311 306 306 308 304 294 235 255 275 270 266 269 256 237 234 240 244 208 192 199 196 206 204 216 207 221 227 227 221 229 241 248 259 175 246 238 253 252 253 247 222 215 228 227 208
318 311 306 315 296 335 294 275 310 342 283 277 250 233 233 220 237 235 183 204 207 211 214 215 227 203 222 228 226 225 226 245 230 242 234 209 241 235 220 221 199 194 204 211 213
318 311 307 299 291 286 285 335 314 295 274 305 16 127 200 211 220 210 209 200 215 205 212 219 218 225 208 225 224 231 213 229 244 249 253 261 267 279 161 198 181 184 188 215 194
315 309 309 289 256 248 262 260 267 235 248 258 301 195 215 220 214 227 207 196 216 231 218 230 215 224 232 212 219 211 237 209 217 227 230 236 253 260 272 194 192 177 189 199 199
312 308 301 275 256 278 320 283 237 238 294 257 250 230 328 254 217 212 200 189 208 214 224 214 233 216 237 217 198 215 216 201 214 224 236 226 236 252 135 251 320 165 170 189 139
313 308 279 256 240 232 245 249 239 270 251 261 291 293 209 191 84 301 250 220 206 212 221 222 209 218 213 213 194 206 204 224 203 212 222 223 229 247 181 174 114 135 161 157 124
313 301 291 273 245 222 238 248 253 256 264 273 277 277 284 200 138 155 298 202 214 216 214 217 225 203 221 204 218 198 213 226 260 287 305 272 217 82 233 123 152 143 137 121 135
310 297 276 250 142 221 246 257 274 280 285 295 280 281 276 286 166 197 190 275 226 217 222 221 220 234 212 221 220 224 201 215 232 236 221 237 221 159 216 164 177 150 154 150 131
290 306 283 45 164 271 253 267 282 315 305 322 300 279 265 271 333 233 296 173 286 292 200 223 146 267 278 220 208 221 232 216 243 232 178 237 273 321 183 341 330 162 153 134 132
307 296 336 263 259 235 271 320 326 283 295 291 268 275 316 134 169 263 211 216 140 315 306 192 199 170 257 234 215 219 217 201 220 255 231 180 167 312 291 230 1 358 148 140 126
304 290 328 37 296 319 330 305 311 345 335 307 305 324 302 327 192 215 203 244 269 297 207 278 176 193 254 250 256 215 214 192 209 307 242 180 121 225 161 90 62 322 294 120 131
289 307 332 312 255 320 316 319 334 352 281 351 322 321 291 299 179 277 226 154 177 207 262 314 232 178 246 213 214 209 212 231 211 174 200 191 151 200 210 168 155 127 86 56 4
272 339 358 326 330 327 327 328 333 347 330 351 333 351 322 258 329 229 222 146 198 226 236 263 219 175 224 260 295 247 197 185 176 109 212 217 252 289 93 329 330 116 107 117 129
322 337 323 301 311 322 335 349 329 341 321 323 310 323 297 256 282 1 10 261 250 204 225 244 216 224 157 149 228 234 180 148 146 215 284 274 243 274 108 83 15 206 161 148 146
337 302 295 312 313 330 343 327 324 325 299 341 319 310 346 354 326 282 291 159 268 255 279 199 213 217 177 24 1 241 191 166 188 170 200 189 167 164 165 128 185 190 117 109 88